MMS 1

Last updated on Thu Dec 18 2025 00:02:41 GMT+0000 (Coordinated Universal Time)

1 40482U 15011A 25351.66670139 -.00000472 00000+0 00000+0 0 9992 2 40482 69.3439 351.4798 8501139 163.4364 144.0491 0.28360027 1388
UTC large
Height (km)
Speed (km/s)
/
Latitude / Longitude
Inclination (degrees)
Orbital Period (minutes)
Azimuth
Elevation
Range (km)
Doppler Factor

Next 0 passes for location: London (51.5072 / 0.1276)

Sorry there are no passes over London.